Estación de Imperial Alto
Ultimos registro cada 15 minutos 22
| N° | Estación | Fecha / Hora | Temperatura | Humedad | Lluvia | Velocidad | Dirección | Radiación | Presion |
| 22 | Imperial Alto | 08-05-2026 05:15 | 15,6 | 35 | 0 | 1,3 | 65 | 0 | 1010,1 |
| 21 | Imperial Alto | 08-05-2026 05:00 | 15,4 | 37 | 0 | 0,9 | 53 | 0 | 1010,2 |
| 20 | Imperial Alto | 08-05-2026 04:45 | 15,8 | 36 | 0 | 1,3 | 51 | 0 | 1010,2 |
| 19 | Imperial Alto | 08-05-2026 04:30 | 15,9 | 36 | 0 | 0 | 40 | 0 | 1010,2 |
| 18 | Imperial Alto | 08-05-2026 04:15 | 15,5 | 36 | 0 | 1,3 | 31 | 0 | 1010,4 |
| 17 | Imperial Alto | 08-05-2026 04:00 | 15,7 | 38 | 0 | 1,3 | 67 | 0 | 1010,5 |
| 16 | Imperial Alto | 08-05-2026 03:45 | 15,9 | 39 | 0 | 0 | 12 | 0 | 1010,4 |
| 15 | Imperial Alto | 08-05-2026 03:30 | 16,4 | 39 | 0 | 1,3 | 179 | 0 | 1010,4 |
| 14 | Imperial Alto | 08-05-2026 03:15 | 16,4 | 39 | 0 | 1,3 | 179 | 0 | 1010,4 |
| 13 | Imperial Alto | 08-05-2026 03:00 | 16,1 | 39 | 0 | 1,3 | 59 | 0 | 1010,5 |
| 12 | Imperial Alto | 08-05-2026 02:45 | 15,4 | 43 | 0 | 0 | 51 | 0 | 1010,5 |
| 11 | Imperial Alto | 08-05-2026 02:30 | 16,1 | 42 | 0 | 0 | 77 | 0 | 1011,3 |
| 10 | Imperial Alto | 08-05-2026 02:15 | 16,1 | 42 | 0 | 0 | 77 | 0 | 1011,3 |
| 9 | Imperial Alto | 08-05-2026 02:00 | 16,4 | 41 | 0 | 0 | 37 | 0 | 1011,4 |
| 8 | Imperial Alto | 08-05-2026 01:45 | 16,4 | 41 | 0 | 1,8 | 35 | 0 | 1011,5 |
| 7 | Imperial Alto | 08-05-2026 01:30 | 19,2 | 34 | 0 | 0 | 60 | 0 | 1011,7 |
| 6 | Imperial Alto | 08-05-2026 01:15 | 19,2 | 34 | 0 | 0 | 60 | 0 | 1011,7 |
| 5 | Imperial Alto | 08-05-2026 01:00 | 19,5 | 34 | 0 | 1,8 | 160 | 0 | 1011,9 |
| 4 | Imperial Alto | 08-05-2026 00:45 | 19,4 | 35 | 0 | 4 | 158 | 0 | 1012,1 |
| 3 | Imperial Alto | 08-05-2026 00:30 | 17,2 | 39 | 0 | 0,4 | 94 | 0 | 1012,3 |
| 2 | Imperial Alto | 08-05-2026 00:15 | 17,2 | 39 | 0 | 0,4 | 94 | 0 | 1012,3 |
| 1 | Imperial Alto | 08-05-2026 00:00 | 17,1 | 40 | 0 | 1,8 | 155 | 0 | 1012,3 |